ECMWFFLT2_sfc_dewp_009.txt.gz
Dewpoint
69 70 70 70 70 70 70 70 69 69 69 70 69 69 69 69 69 70 70 71 71 69 69 67 71 67 70 69 70 71 69 68 69 69 69 69 69 68 68 68 68 68 67 67 66 66 66 66 67 65 66 68 67 65 64 60 60 59 57 51 61 62
69 68 69 69 69 69 70 69 71 70 70 69 69 68 69 70 70 69 68 70 68 69 69 68 66 67 67 67 68 71 70 70 69 69 69 69 68 68 68 68 68 67 67 66 67 62 64 67 66 65 65 66 66 64 63 62 61 57 56 57 62 64
67 70 68 67 68 70 69 69 69 69 68 68 69 70 70 70 68 68 68 68 70 68 67 68 66 63 64 67 64 70 71 70 70 70 69 69 68 68 68 68 68 67 67 67 62 57 58 59 60 66 67 66 63 61 62 62 61 59 55 61 62 66
66 67 69 68 69 69 69 69 69 69 69 68 68 69 69 69 68 69 67 68 69 69 68 69 67 66 68 65 67 70 70 70 71 69 70 69 69 68 68 68 67 67 67 61 57 55 53 56 58 59 60 62 60 62 63 63 59 59 59 58 60 66
65 67 66 68 68 68 69 70 68 67 68 69 68 68 69 68 68 68 67 68 66 68 68 68 67 65 61 62 66 68 68 66 66 65 70 62 65 66 67 66 65 64 60 59 57 59 57 55 58 57 59 60 60 62 62 62 60 57 58 62 64 66
65 66 68 68 68 70 68 68 68 69 67 67 68 69 69 69 68 68 69 66 69 67 66 67 67 66 63 70 66 64 67 68 65 64 65 60 64 63 62 63 64 62 60 60 60 60 58 58 58 57 56 60 60 61 61 60 60 60 60 64 64 67
60 65 67 66 68 67 69 68 69 68 67 68 67 69 69 69 69 69 69 69 69 68 65 66 68 65 67 68 68 70 68 69 68 62 63 62 61 61 60 62 65 63 62 61 60 60 58 57 58 54 56 55 58 59 60 60 60 60 61 63 65 67
58 61 63 60 64 65 68 67 68 67 68 68 67 68 67 67 68 68 68 66 68 67 66 59 65 65 63 64 66 65 67 68 69 62 61 63 61 58 59 59 61 60 60 59 62 59 59 55 57 58 55 55 57 59 60 60 62 62 61 62 63 67
57 58 61 60 60 61 62 66 67 66 68 67 67 67 67 69 67 67 67 65 64 66 62 62 60 62 62 65 65 64 64 68 66 62 63 62 60 59 59 59 60 60 61 60 58 59 58 57 59 59 56 55 55 55 58 60 62 60 61 60 64 65
53 53 57 58 60 60 62 64 64 64 65 66 68 69 68 69 69 70 69 65 66 65 65 61 62 62 64 67 64 65 67 68 68 63 63 64 60 60 58 59 58 58 56 57 57 58 59 59 57 58 55 55 54 55 58 58 59 59 60 60 62 65
50 57 52 50 57 60 61 60 60 64 66 65 68 66 67 66 68 67 66 67 66 66 65 63 66 65 67 63 62 67 66 69 69 65 66 63 62 61 60 60 58 55 56 55 54 54 53 57 58 56 55 53 53 55 55 58 57 58 58 59 60 65
52 58 59 51 54 57 57 56 59 59 65 64 67 65 64 64 68 64 66 66 68 66 66 68 68 66 64 63 61 63 67 68 67 66 66 62 61 60 60 57 54 56 55 56 56 56 57 56 57 54 55 53 52 54 53 55 56 56 57 59 58 63
54 58 57 57 56 57 59 56 57 58 64 66 66 66 64 65 68 68 67 67 67 66 67 67 67 67 65 62 66 65 64 67 67 67 66 64 62 61 60 59 57 57 57 57 58 58 54 58 58 56 55 53 53 51 52 52 56 56 56 56 57 57
58 55 59 57 57 55 58 58 57 57 63 67 65 64 64 69 69 67 66 67 67 66 65 67 65 65 65 66 64 65 65 66 67 67 66 65 63 61 60 60 58 56 57 57 57 59 56 56 53 55 58 56 57 57 55 51 53 55 57 58 57 58
61 60 58 58 56 58 59 56 56 57 60 63 66 64 64 65 64 65 65 65 66 66 65 64 64 67 65 64 63 65 66 66 67 67 67 64 63 61 60 60 59 58 58 58 59 58 57 63 64 63 64 64 61 56 58 56 55 53 54 58 59 58
63 62 62 60 62 62 59 60 58 58 60 61 61 63 64 67 63 63 64 64 65 65 65 64 64 65 67 65 62 64 65 66 67 66 64 64 63 62 61 61 60 59 62 57 56 58 61 62 65 64 66 65 63 62 60 57 57 55 55 57 56 58
64 63 61 61 61 61 59 58 59 59 58 59 58 58 60 62 63 63 63 64 66 65 65 65 65 64 66 66 64 65 65 66 67 66 66 66 63 62 62 60 64 62 63 66 63 62 63 62 64 64 64 64 64 63 62 61 57 58 53 56 56 55
64 62 61 60 60 59 59 55 54 55 58 55 56 56 55 56 60 61 63 63 64 65 65 65 65 66 67 65 65 65 65 66 66 66 66 66 64 63 63 61 62 65 66 64 64 63 62 63 63 62 64 65 65 65 64 62 62 60 56 54 56 55
64 62 60 61 60 61 59 59 55 55 53 53 56 55 54 54 57 59 61 62 62 62 62 63 65 65 66 65 64 65 65 65 66 65 65 65 65 64 64 65 64 66 64 65 66 64 62 63 62 62 60 63 66 65 65 66 64 62 60 56 54 55
63 60 60 60 58 54 54 53 53 54 53 55 54 54 56 54 57 55 58 59 59 60 59 61 62 62 64 63 63 64 65 65 65 65 65 63 63 63 64 65 65 63 63 64 63 63 64 63 63 63 64 63 64 66 65 66 66 64 62 61 58 57
63 60 57 56 53 52 52 52 53 53 52 53 53 53 54 56 56 56 56 53 55 57 58 58 57 57 59 59 61 64 64 65 64 63 63 64 64 64 65 66 67 66 64 63 63 65 65 66 64 63 64 64 64 65 65 64 64 66 64 62 61 59
60 58 56 56 53 53 53 51 51 52 50 48 45 48 49 53 54 54 54 54 54 53 55 56 56 58 58 56 57 58 64 63 63 64 63 64 64 65 64 65 64 64 63 62 61 63 64 64 62 60 59 60 62 65 66 66 65 62 65 66 65 65
60 56 55 56 52 53 53 54 53 50 49 50 53 53 49 50 51 49 54 54 55 56 55 54 56 56 56 56 56 56 58 60 63 62 62 63 63 63 63 63 63 63 63 63 63 64 64 64 62 61 61 58 59 59 62 63 63 61 63 65 65 64
60 57 56 56 53 56 56 55 55 53 53 52 51 53 54 53 52 53 54 56 57 58 56 55 54 52 54 55 56 56 57 58 60 59 61 62 62 61 62 62 63 62 63 60 61 62 64 64 64 62 57 59 59 59 57 59 62 64 64 63 62 61
59 57 55 55 55 57 58 57 56 56 54 51 50 48 49 50 52 52 54 56 56 56 54 53 54 53 51 53 54 55 56 58 58 58 58 57 56 57 59 63 62 62 61 61 61 62 62 64 64 64 62 60 58 58 58 60 59 62 63 60 62 57
58 57 55 56 57 57 55 54 52 49 46 46 47 49 50 49 50 51 49 55 54 54 55 55 54 53 52 53 55 55 55 55 56 57 56 56 54 53 53 54 58 59 60 62 62 61 60 62 62 62 63 63 62 59 58 60 58 56 64 65 62 59
58 56 56 56 58 53 52 51 51 48 46 47 47 50 52 53 52 49 54 55 54 57 55 55 55 54 53 53 53 53 54 54 54 55 54 55 54 55 52 52 55 56 57 58 60 59 59 59 62 61 61 62 62 61 60 59 57 58 56 62 64 63
58 55 56 57 57 53 53 51 50 49 47 47 49 51 52 53 53 53 53 55 56 56 55 55 55 53 53 53 54 54 55 55 51 51 51 51 53 53 54 54 56 57 55 57 57 58 57 58 57 59 62 61 61 60 61 61 60 57 57 54 59 64
58 56 56 57 56 53 54 52 51 49 47 48 51 51 50 50 50 53 54 54 54 53 54 55 54 54 52 50 50 50 50 49 48 47 45 47 51 52 55 57 56 56 57 57 57 57 55 55 54 55 58 59 60 59 60 61 59 58 54 53 54 57
58 56 56 56 56 54 54 53 51 50 49 49 49 48 49 49 51 52 53 54 53 52 51 53 53 49 48 46 47 47 46 47 48 45 44 45 47 51 53 54 56 57 57 56 55 55 55 54 53 54 53 53 52 52 55 57 57 53 53 56 53 52
58 56 56 56 56 54 54 53 51 50 50 51 50 49 50 51 50 52 51 52 51 50 51 51 50 51 50 49 50 49 49 48 49 49 47 46 48 47 50 51 52 53 53 53 53 54 54 54 53 52 50 48 48 50 50 48 50 50 50 48 47 47
58 56 57 56 56 55 54 53 53 52 50 51 51 50 51 51 50 51 51 50 50 49 50 51 50 49 52 51 50 49 50 50 49 50 48 48 48 47 49 49 50 51 52 52 52 51 52 51 52 50 50 48 49 49 49 49 48 48 48 47 47 44
57 56 57 56 55 56 55 54 52 52 51 52 51 50 52 51 51 51 50 51 50 49 48 49 49 49 51 52 50 51 50 48 49 50 49 46 48 49 48 49 50 50 51 50 51 51 50 51 50 48 47 47 45 46 47 48 48 47 46 48 47 42
57 57 58 56 54 54 55 55 54 52 51 51 51 51 52 51 51 50 49 50 49 50 49 51 50 50 50 50 50 51 51 50 49 50 50 51 51 49 49 45 49 51 51 51 52 51 51 51 51 50 47 47 44 44 45 47 47 47 47 46 44 45
57 56 57 55 53 54 54 55 53 53 51 52 50 49 49 50 51 51 50 51 49 49 49 50 49 51 49 52 52 52 51 50 50 50 50 51 50 50 50 47 49 51 51 51 50 50 49 50 49 48 50 46 47 45 43 42 43 45 43 44 45 46
57 56 57 55 53 54 54 55 55 54 54 52 51 51 48 50 50 51 52 51 49 51 50 50 52 51 50 52 52 52 51 51 50 50 50 49 49 48 50 48 48 51 49 49 52 52 50 50 51 51 48 48 46 44 46 43 43 44 43 47 45 44
55 56 56 56 55 54 54 55 55 54 54 54 53 52 50 52 54 53 53 52 49 49 52 52 52 52 50 52 53 53 51 51 51 50 50 49 49 49 49 49 50 51 51 50 50 48 49 49 50 48 48 49 44 45 44 45 47 48 46 47 47 45

ECMWFFLT2_sfc_dewp_015.txt.gz
Dewpoint
70 70 70 70 71 71 72 72 72 72 72 72 72 72 72 72 72 72 71 71 71 70 70 70 70 70 70 70 70 70 70 69 69 69 69 69 68 68 68 68 68 68 68 66 66 67 67 67 67 66 68 68 68 67 66 65 63 64 63 64 64 64
69 70 70 70 71 71 71 71 71 71 71 71 72 72 71 71 72 71 71 71 69 70 69 69 69 71 70 70 70 70 70 69 69 69 69 69 68 69 68 68 68 69 68 67 67 65 65 67 67 68 67 67 65 65 65 65 63 63 63 63 64 66
69 69 69 70 70 70 70 70 70 70 71 71 71 71 70 70 70 70 70 69 69 68 68 68 68 69 69 70 70 70 70 70 69 69 69 69 69 69 69 68 69 69 69 68 66 63 62 62 63 67 68 66 64 64 64 64 62 63 63 64 64 67
68 69 69 69 70 69 69 69 70 70 70 70 70 70 69 69 69 69 69 68 69 69 67 66 67 67 68 68 70 70 70 70 70 69 69 70 69 69 68 68 68 68 69 68 64 62 61 61 62 61 62 63 63 62 63 63 61 62 63 65 65 67
68 68 68 69 69 69 69 68 69 69 69 69 69 68 68 68 68 68 68 68 68 68 67 67 67 67 66 67 68 68 69 68 67 68 70 66 66 68 68 67 67 67 65 64 63 61 60 58 61 60 61 61 62 62 62 63 62 62 63 64 66 67
68 68 68 69 68 69 69 68 68 68 68 68 68 68 67 67 67 67 68 68 68 67 67 67 65 65 67 66 65 67 68 66 67 67 69 66 66 66 66 66 66 66 65 63 62 60 59 59 59 60 59 59 59 61 62 62 62 63 64 65 66 67
67 68 68 69 69 69 68 68 68 68 67 68 67 68 68 68 67 67 67 68 66 66 66 66 66 65 66 66 66 65 66 66 65 65 68 64 64 64 66 65 65 65 64 62 60 59 59 59 59 59 59 58 59 60 62 62 62 63 64 65 67 68
67 67 67 68 68 68 68 68 68 69 68 70 68 67 67 67 66 67 66 66 68 67 66 65 65 66 66 66 65 65 67 67 67 67 67 65 64 63 65 65 64 64 63 61 60 60 60 59 59 59 59 58 59 61 64 61 61 63 64 65 66 67
66 66 66 68 67 68 68 68 68 68 68 70 67 67 67 67 67 67 67 67 67 65 65 65 65 66 65 66 65 65 66 66 66 66 64 64 64 63 64 64 63 64 64 63 61 61 60 60 61 59 58 58 59 60 61 61 62 63 64 65 66 67
65 65 66 66 67 67 67 67 67 67 68 69 67 67 67 66 66 67 66 67 67 66 65 66 66 65 64 64 66 66 66 66 66 65 65 64 64 64 63 63 64 63 63 62 60 60 61 60 59 58 58 56 56 58 61 61 62 62 63 64 65 67
65 67 66 65 66 67 68 67 67 68 68 67 68 67 67 66 65 66 67 67 66 66 65 66 65 64 65 66 65 65 65 66 65 66 65 64 64 64 63 62 63 62 61 60 59 59 60 59 59 57 58 56 55 57 59 61 61 62 62 63 64 66
65 66 64 64 66 66 66 66 67 67 67 67 68 67 67 67 67 67 67 66 65 65 65 65 64 64 65 64 64 65 65 66 66 66 67 66 64 64 62 62 61 61 60 59 59 59 60 59 59 57 57 56 56 56 57 59 60 61 61 62 64 65
63 64 61 62 62 64 65 65 66 66 66 67 66 66 65 65 65 65 66 66 66 65 64 64 65 64 65 63 64 65 63 65 66 66 67 67 66 64 62 63 60 60 60 59 61 60 59 60 59 61 61 60 61 60 60 58 58 60 62 62 62 64
58 59 60 61 61 61 63 63 64 65 67 65 65 65 66 65 66 65 65 65 66 66 66 66 65 64 64 63 64 64 63 63 65 66 66 66 65 64 64 62 61 60 63 58 58 60 61 62 62 63 63 62 62 62 61 60 60 59 62 62 61 62
57 58 59 59 58 59 60 62 63 64 63 64 64 64 65 65 65 65 65 65 65 66 65 65 65 64 64 64 64 63 63 64 65 65 66 64 64 63 62 63 63 59 60 60 61 63 62 62 62 63 62 63 63 63 62 61 61 61 59 60 63 62
61 59 59 60 60 60 61 62 63 65 62 63 64 64 64 65 64 64 65 64 64 64 66 65 65 65 64 65 64 64 64 65 65 65 64 63 62 63 63 63 64 64 61 61 61 61 63 62 63 62 62 63 64 64 63 63 63 62 61 60 60 63
60 60 60 58 57 58 59 61 63 62 62 62 62 63 64 64 64 64 64 64 65 64 65 65 65 65 64 63 65 64 65 64 64 65 64 63 63 63 64 64 64 64 63 61 62 62 61 61 61 62 63 63 64 64 64 64 63 63 62 61 60 60
61 60 59 59 60 57 58 58 60 61 63 61 62 62 62 63 63 63 64 64 64 64 64 65 65 65 65 65 64 64 65 64 65 64 63 64 64 63 63 63 63 64 64 62 61 62 61 60 62 62 61 63 64 64 64 64 64 64 63 62 62 61
60 60 60 61 58 54 53 53 54 57 59 61 61 62 62 62 63 62 63 63 64 64 64 64 65 64 64 64 64 63 63 63 65 63 61 63 63 63 62 63 61 63 64 63 63 62 61 61 61 62 63 63 63 63 63 64 64 63 63 63 62 62
59 59 59 56 54 51 50 53 53 53 54 57 59 60 59 60 61 62 62 62 62 62 63 65 65 64 65 65 64 63 63 63 63 63 61 60 61 62 61 60 61 62 62 62 62 62 62 62 61 61 61 62 63 63 63 63 63 63 64 64 63 62
60 60 56 55 54 54 52 54 52 52 53 54 54 55 55 55 54 55 57 60 62 61 62 62 63 64 63 66 64 62 63 63 63 63 62 61 61 63 62 61 61 60 61 59 60 61 60 60 59 57 59 60 60 62 64 63 62 63 63 64 63 63
59 58 58 56 55 56 56 54 51 52 50 54 52 50 50 51 53 55 55 56 57 57 58 59 60 61 61 62 64 63 63 63 64 63 63 64 63 62 62 60 60 60 60 59 59 60 60 59 57 56 56 57 58 60 63 62 62 63 63 64 63 62
59 58 58 59 58 55 55 56 54 52 51 52 52 52 51 53 55 54 56 58 59 58 57 55 56 58 59 58 62 63 62 61 63 63 63 63 62 61 61 60 60 59 59 60 59 60 60 59 57 58 58 55 55 55 57 59 61 62 63 64 63 62
58 59 59 58 57 56 56 55 53 52 52 51 51 55 55 56 55 54 54 55 56 55 55 54 55 56 55 56 59 60 61 61 62 63 63 62 61 61 61 61 60 60 59 58 57 59 60 59 59 57 54 54 55 53 51 54 57 59 63 64 61 61
58 59 57 58 56 55 53 52 52 52 53 52 53 52 52 52 54 56 56 57 57 57 56 55 56 55 55 54 57 58 58 59 60 62 61 62 61 61 60 60 60 60 59 58 57 59 61 62 61 61 57 54 51 51 52 55 55 56 61 61 63 64
59 58 58 56 55 53 51 49 49 48 48 50 51 50 50 52 53 53 54 55 54 54 56 56 54 55 56 57 55 55 57 55 54 55 57 59 61 61 60 60 59 59 59 58 58 57 59 60 60 60 60 59 56 54 54 56 54 52 57 61 61 62
58 57 58 56 56 55 51 49 48 48 49 50 49 50 53 54 55 55 55 55 55 55 55 54 55 54 54 54 52 51 50 54 55 55 56 56 56 56 56 59 60 59 58 59 58 57 57 57 59 59 60 59 60 59 59 55 52 54 52 55 58 60
58 58 58 57 57 55 51 50 49 49 51 52 52 51 52 53 54 55 54 54 54 55 53 52 51 51 51 51 51 49 48 50 52 53 55 55 56 57 57 57 58 58 59 58 58 58 57 58 56 56 58 57 59 59 58 59 58 55 53 51 53 57
58 57 58 57 57 55 53 49 48 50 54 53 52 53 54 55 55 55 54 55 53 52 52 51 49 49 49 50 53 51 50 48 49 51 53 53 54 55 55 55 55 55 54 54 56 56 57 56 56 57 57 57 58 58 59 58 59 57 53 51 51 52
58 57 58 57 56 54 53 51 49 53 53 52 52 52 52 53 54 55 54 54 53 52 50 50 50 50 51 52 51 50 49 51 51 52 52 52 52 52 52 52 54 54 53 52 53 53 54 54 52 53 55 57 56 57 56 55 56 56 55 53 50 52
58 57 58 55 55 53 52 52 51 53 51 51 50 51 52 53 54 52 52 51 51 51 50 51 51 51 50 51 52 53 50 51 51 54 52 50 51 52 52 52 53 53 52 51 51 50 50 51 50 49 49 50 50 50 49 48 47 50 48 46 46 46
59 58 57 54 54 52 51 52 53 52 51 51 50 51 51 52 53 51 52 52 52 50 50 52 51 51 50 51 52 52 53 52 51 50 51 51 51 52 53 52 52 52 51 51 51 50 49 48 48 48 47 49 49 49 48 48 49 49 48 46 46 45
59 57 56 53 54 51 50 52 54 52 51 52 51 51 51 52 52 51 52 52 50 50 51 50 51 49 49 51 53 50 49 49 49 50 49 49 51 51 51 51 51 51 51 50 50 49 48 48 48 48 47 48 47 48 49 48 48 47 48 50 48 44
58 57 56 53 54 52 49 51 55 52 51 53 52 51 51 52 52 52 53 51 51 50 50 51 51 49 51 52 54 53 53 52 52 52 53 52 51 51 52 52 51 51 51 51 51 50 49 49 48 48 49 46 46 47 46 47 48 47 47 47 46 44
57 58 56 54 54 52 50 52 55 53 52 53 52 52 52 53 52 52 52 51 51 51 51 52 51 52 53 53 52 51 51 51 51 50 51 51 52 52 52 52 52 52 51 50 50 51 49 48 48 47 47 48 47 46 46 47 48 48 48 48 48 47
57 57 57 55 55 55 51 52 56 54 52 54 54 53 53 53 52 53 53 52 51 51 52 52 52 52 54 52 51 51 52 52 51 51 51 51 50 50 50 50 50 50 49 52 50 50 49 49 48 48 47 48 47 45 46 49 48 49 48 49 48 48
57 57 58 57 55 56 54 53 55 54 53 54 53 52 53 53 53 53 53 53 51 52 52 52 52 52 54 52 52 51 51 51 51 51 50 52 51 51 51 51 50 50 50 51 51 50 50 49 49 49 49 47 48 45 47 49 47 49 50 49 49 48

ECMWFFLT2_sfc_dewp_021.txt.gz
Dewpoint
71 71 71 71 71 71 72 72 71 72 71 72 72 72 72 72 72 71 71 72 71 69 68 68 69 68 69 69 70 69 68 68 69 69 69 69 69 69 68 69 68 68 67 67 67 68 68 66 66 66 67 67 66 63 63 63 63 64 63 64 65 62
71 71 71 71 71 71 71 72 71 71 71 71 71 71 71 70 72 69 71 70 68 70 68 67 67 70 69 69 69 69 68 69 69 68 69 69 69 69 68 69 68 68 68 67 67 61 62 65 65 66 65 65 62 62 62 63 63 63 64 63 64 64
70 70 70 71 71 71 70 70 70 70 70 71 71 71 70 71 68 68 69 68 68 68 67 67 68 69 70 70 69 69 69 68 69 68 68 69 69 69 69 68 69 69 69 68 62 59 59 58 59 64 65 61 60 61 62 62 62 63 64 63 62 66
70 70 70 70 70 70 70 70 70 70 70 70 69 70 69 69 68 68 68 67 66 67 67 66 70 70 70 69 69 69 69 69 69 68 68 69 69 68 68 68 68 69 68 66 61 61 61 60 59 59 59 59 60 60 62 62 63 63 63 65 63 67
69 69 69 70 70 70 70 70 69 69 69 68 69 68 68 68 68 67 67 66 66 66 65 65 65 66 67 67 66 66 66 66 66 66 69 65 65 66 66 65 65 65 63 62 62 61 60 61 60 60 59 60 60 60 62 63 63 63 63 64 64 67
69 69 69 69 69 69 70 69 69 69 69 68 68 67 68 68 67 67 66 66 66 65 65 64 63 65 66 66 66 66 65 65 65 65 66 64 65 65 64 64 63 63 62 61 62 61 60 61 60 59 59 59 59 60 62 62 62 63 63 64 65 68
68 68 68 69 69 69 69 69 69 69 69 67 67 67 66 66 67 66 66 67 65 64 63 63 63 64 65 65 66 65 65 64 64 64 65 65 64 64 64 64 63 63 62 62 62 62 61 60 59 59 58 59 59 60 62 62 63 63 63 63 66 68
68 68 68 69 68 68 68 68 68 69 68 69 67 66 66 66 66 66 66 66 66 64 63 63 62 63 64 64 65 64 64 64 64 64 65 65 64 63 64 64 63 62 63 62 63 63 61 61 59 58 59 59 59 59 61 62 63 63 63 64 65 68
68 68 68 68 68 68 67 67 68 69 68 70 66 66 66 66 65 65 65 66 66 63 63 63 63 63 62 63 63 64 64 64 63 64 65 64 64 63 63 63 63 63 62 63 61 62 61 61 59 58 58 59 59 59 61 62 62 63 63 63 65 67
68 68 68 68 67 67 67 67 67 68 67 69 66 66 66 65 65 65 64 66 66 64 63 63 63 63 63 62 62 63 63 64 64 63 64 65 64 63 62 63 63 62 63 62 62 62 61 61 60 59 58 58 58 60 61 62 62 63 63 64 64 65
68 69 68 68 67 67 67 67 67 67 67 67 66 66 65 65 64 64 64 65 65 65 64 63 63 63 62 63 62 62 62 62 63 64 63 63 63 63 62 62 62 63 63 62 63 62 61 61 59 58 58 57 57 61 61 61 62 63 63 64 64 64
68 68 68 68 68 67 67 67 67 67 67 66 67 66 65 65 66 64 64 64 64 63 64 63 62 62 62 62 62 62 62 63 63 62 63 62 62 62 63 63 63 63 63 62 62 61 60 59 58 60 60 60 59 61 61 61 61 62 63 63 63 63
68 68 67 67 67 67 66 67 67 66 66 67 66 65 65 64 65 64 64 63 63 64 63 63 63 63 65 62 62 62 62 63 63 63 62 63 63 61 61 62 62 62 62 62 61 60 61 60 61 61 61 61 60 59 60 61 61 62 62 63 63 63
67 67 66 66 66 66 66 66 66 65 67 66 65 65 65 63 64 64 65 64 63 64 64 63 63 63 62 62 62 61 61 62 62 62 62 61 61 61 61 62 63 60 63 61 60 59 60 61 61 61 61 61 61 60 60 60 60 61 61 62 62 62
67 66 67 66 66 66 65 66 65 65 65 65 64 64 63 63 63 63 64 64 63 63 64 63 63 63 61 61 62 61 61 61 62 63 61 61 61 61 62 62 62 59 60 60 61 61 61 61 61 61 61 61 62 62 61 61 60 60 61 60 61 62
66 65 64 65 64 65 65 64 64 66 64 63 63 62 62 63 62 63 63 62 63 63 63 63 63 62 61 62 62 61 62 62 62 61 61 61 61 61 62 62 62 60 60 61 61 61 61 61 61 61 61 61 62 62 62 61 61 61 60 61 61 61
65 64 63 63 63 62 63 63 64 64 63 62 62 62 62 62 62 62 62 62 62 64 62 63 63 63 61 62 61 61 62 61 63 61 61 60 61 62 62 62 62 62 60 60 61 61 60 61 61 61 61 61 61 62 62 62 61 61 61 60 60 61
63 63 61 61 62 62 62 62 62 62 64 61 61 61 61 61 61 61 61 61 63 63 63 63 63 63 61 62 62 61 61 61 62 61 61 60 60 61 61 61 61 61 61 60 60 60 60 59 60 61 61 61 61 61 61 62 62 63 61 61 59 60
60 60 60 60 62 61 61 61 60 60 60 60 60 60 60 60 60 61 60 61 63 63 64 63 63 63 62 62 61 61 61 61 61 61 60 60 60 61 60 61 61 61 62 62 60 59 59 60 61 60 61 60 60 61 61 61 62 62 61 61 62 62
59 59 60 61 61 60 60 60 59 59 59 59 58 60 59 59 59 59 61 62 63 62 63 63 63 62 61 62 60 60 61 61 61 60 59 59 59 60 60 60 60 60 60 61 61 61 60 60 59 58 58 58 60 62 62 60 60 62 61 61 61 61
58 59 59 59 59 60 59 57 57 57 57 57 57 56 57 58 59 59 60 61 62 62 62 63 63 62 61 63 60 60 60 60 60 59 59 59 58 59 59 60 60 60 59 59 60 60 59 58 58 56 55 55 58 62 63 62 61 61 61 61 60 61
57 57 58 59 59 58 57 58 57 56 55 55 56 55 54 54 56 58 58 59 60 59 60 61 63 61 62 62 60 60 59 60 61 60 58 59 59 61 59 59 60 59 59 58 58 59 59 58 55 54 54 54 55 56 59 60 61 62 62 61 60 60
55 55 54 56 56 56 55 56 56 55 55 51 51 54 53 56 56 55 54 55 56 56 56 57 61 62 62 61 60 59 59 59 60 60 59 60 61 60 58 58 58 59 58 60 60 60 58 55 55 54 54 53 51 50 53 54 57 60 62 60 59 60
54 53 53 55 56 54 55 55 55 54 53 51 51 56 54 54 53 54 54 54 55 54 54 55 57 60 61 61 60 59 59 59 58 60 61 61 60 59 57 58 57 57 59 57 58 59 59 57 55 54 51 50 50 47 46 50 52 56 60 60 59 60
54 54 55 57 55 55 55 53 53 54 54 53 53 53 52 53 53 55 53 53 53 53 54 55 56 57 60 58 58 59 59 59 60 60 61 60 60 59 59 58 58 58 57 58 57 59 61 60 59 57 55 52 48 47 46 51 52 54 57 58 59 60
55 55 56 55 54 54 54 52 52 51 51 51 51 51 50 50 50 51 51 52 52 53 52 51 52 54 55 55 54 56 58 59 59 59 59 58 60 60 58 57 57 57 56 56 58 59 59 60 59 59 57 55 52 50 50 55 52 49 53 57 57 59
56 56 56 54 53 54 53 52 52 51 51 51 51 49 50 51 51 52 52 52 51 51 50 50 51 51 53 55 54 55 57 57 58 57 59 56 56 56 57 58 57 56 56 57 58 57 58 58 58 58 59 59 59 56 54 52 50 48 50 52 54 56
56 56 55 53 53 53 52 51 51 51 52 51 51 51 52 52 52 53 51 50 49 48 49 50 51 52 53 54 54 54 55 56 56 56 56 54 54 54 56 56 56 56 56 56 57 58 58 58 56 56 58 56 57 58 56 56 54 51 48 48 50 53
56 56 54 53 52 52 52 51 52 52 51 51 51 52 53 53 52 51 49 48 48 48 49 49 50 51 51 53 55 53 54 54 54 54 56 54 53 54 53 54 54 54 55 55 56 55 58 57 55 56 57 57 57 56 55 54 55 52 49 47 48 48
55 54 53 52 52 51 51 52 52 51 51 52 52 52 52 51 50 49 48 47 47 48 48 48 49 49 50 51 52 53 53 53 53 53 53 52 52 52 52 52 51 52 52 52 51 53 55 53 55 56 57 57 56 54 48 47 47 51 50 48 47 44
55 54 53 51 50 50 51 51 51 51 52 53 53 52 51 50 49 48 47 46 47 47 48 48 49 49 50 51 52 53 52 52 53 55 53 51 51 51 50 50 50 50 49 49 49 49 49 50 50 51 52 54 52 51 46 45 44 46 46 42 43 42
55 55 53 52 50 50 50 51 51 52 52 53 53 52 52 51 50 48 47 46 47 47 46 47 47 48 48 50 51 51 52 51 52 51 51 51 50 50 50 50 49 49 48 48 48 48 47 47 47 47 47 47 47 47 47 46 46 46 45 44 43 41
55 54 53 53 51 50 50 52 52 52 53 53 53 52 52 52 50 49 47 46 46 46 46 46 46 48 47 48 50 49 49 50 50 51 50 50 49 49 49 49 49 48 48 47 46 46 46 45 46 45 45 45 46 46 46 46 47 46 45 44 42 40
55 54 54 54 53 52 53 53 53 53 53 54 53 52 52 52 51 49 48 47 47 47 46 45 46 47 48 48 48 49 50 49 49 49 49 49 49 49 49 49 49 48 48 47 47 47 46 46 45 44 45 45 45 46 45 46 45 46 45 44 43 41
55 54 53 53 53 53 54 55 55 56 53 53 53 53 53 53 51 50 48 47 47 47 46 45 47 47 50 47 48 48 49 49 49 49 50 50 51 50 50 50 49 49 48 47 47 47 45 44 45 44 44 45 46 45 44 45 46 45 45 45 44 42
55 55 55 56 56 54 54 54 54 53 53 53 54 53 53 53 51 50 49 48 48 47 47 47 46 49 49 48 48 49 48 48 48 49 49 49 49 49 48 48 47 48 48 48 46 46 45 45 44 44 44 43 45 44 44 45 45 45 45 46 46 45
55 56 56 56 56 56 56 55 54 53 53 53 53 53 53 52 52 51 49 49 49 49 48 48 48 50 48 47 48 48 48 48 48 48 48 49 49 48 47 48 48 47 47 47 48 46 45 45 44 44 44 44 45 45 45 45 45 47 46 45 45 44

ECMWFFLT2_sfc_dewp_024.txt.gz
Dewpoint
71 71 71 71 70 70 71 71 71 72 71 71 71 71 71 72 71 71 71 71 70 69 69 69 69 69 69 70 70 69 69 69 69 69 69 69 69 68 68 68 68 68 68 68 68 68 67 66 66 66 66 66 67 65 64 63 64 66 64 66 67 63
71 71 71 71 71 71 71 71 70 71 71 71 71 71 71 70 70 69 71 70 69 70 68 68 68 70 69 70 69 69 69 69 69 69 69 69 69 69 68 68 69 69 68 68 67 62 62 65 65 65 65 65 63 63 63 64 64 64 65 65 65 65
70 70 70 70 70 71 70 70 70 70 70 71 71 70 69 70 68 69 69 69 69 68 68 69 69 69 70 70 69 68 68 69 69 69 69 69 69 69 68 68 69 68 69 66 63 61 61 60 61 64 65 62 62 63 63 63 64 65 64 65 64 65
70 70 70 70 71 71 71 71 70 70 70 69 69 70 68 68 68 68 68 68 68 68 67 67 68 67 68 69 68 68 68 68 68 68 68 70 69 68 68 68 68 69 68 64 62 62 62 62 61 60 61 61 62 63 63 63 64 64 64 66 63 66
70 70 70 70 70 70 70 70 70 70 69 68 69 68 68 68 68 67 67 67 67 68 66 66 66 67 67 67 66 66 67 67 66 67 68 64 64 65 65 65 64 65 63 63 63 62 62 63 61 60 61 61 62 62 63 64 64 64 64 65 65 66
70 70 70 70 70 70 70 70 69 69 69 68 68 69 69 68 67 67 66 67 67 65 65 64 65 66 67 66 66 66 65 65 65 66 67 65 65 65 63 64 63 63 64 64 63 63 62 63 61 60 60 60 60 63 63 63 63 64 64 65 65 66
69 69 70 70 70 69 69 69 69 69 69 68 68 68 68 67 67 66 66 67 65 64 64 63 64 66 66 66 66 66 66 65 65 66 67 66 66 65 64 64 63 64 63 64 64 63 62 61 60 60 60 60 60 62 63 63 63 63 64 64 65 66
69 69 69 69 69 69 69 69 69 69 68 69 68 67 67 67 66 66 66 66 66 64 64 63 64 65 65 66 66 66 65 65 65 66 67 66 65 65 65 65 64 63 63 63 64 63 62 61 60 60 60 60 60 61 63 63 63 64 64 64 65 67
68 68 69 69 69 69 69 69 68 68 68 69 67 67 67 66 66 66 65 66 66 64 63 63 63 64 64 65 66 66 66 65 64 65 67 66 65 64 64 64 64 63 63 63 63 63 63 61 61 60 60 60 60 60 62 62 63 63 64 64 65 67
68 68 68 68 68 68 68 68 68 68 68 68 66 65 65 65 65 65 65 65 65 64 64 63 64 63 64 63 64 65 65 65 64 64 65 65 64 63 63 63 63 63 63 63 63 63 63 62 61 59 59 59 60 60 62 62 63 63 64 65 65 66
67 68 68 68 68 68 68 68 68 69 68 67 66 66 65 65 64 65 65 65 65 65 63 63 63 63 63 63 63 64 64 64 64 63 64 63 64 64 63 63 63 63 63 63 63 62 62 61 59 60 60 57 59 61 62 62 63 63 64 65 65 66
67 68 67 67 68 67 67 67 68 68 68 67 66 65 65 65 65 64 65 64 64 64 64 63 63 63 63 63 63 63 63 63 63 63 64 63 63 63 63 63 63 63 63 63 63 62 61 60 60 61 61 60 60 61 61 62 63 63 64 64 64 65
67 67 66 66 67 66 66 67 67 67 67 67 66 65 64 64 64 64 63 63 63 64 64 63 62 62 63 62 63 62 63 64 64 62 63 64 63 62 62 62 63 63 63 63 62 61 61 62 61 61 61 61 60 61 61 61 62 63 64 64 64 65
67 67 66 66 66 66 66 66 66 65 67 66 65 64 65 63 64 64 64 63 63 64 64 63 63 63 63 62 62 62 62 62 63 62 62 62 62 62 62 63 63 60 64 62 61 60 61 61 62 62 62 62 61 61 61 61 62 63 63 64 64 65
67 66 67 66 67 66 65 66 65 65 65 65 64 63 62 62 64 64 64 63 63 64 64 63 63 62 62 62 62 62 61 62 62 62 62 62 62 62 62 63 62 60 61 61 61 61 61 61 62 62 62 62 62 62 62 61 61 62 62 63 63 64
67 66 66 66 65 65 65 64 65 66 64 64 64 64 64 63 63 64 64 63 63 64 64 63 63 62 62 62 62 62 62 62 63 62 61 62 62 61 62 62 62 61 61 61 61 61 62 61 62 62 62 62 62 62 62 61 61 61 62 62 63 64
66 66 65 65 65 64 63 64 65 65 64 64 63 63 64 63 63 63 63 63 63 64 63 63 63 62 62 62 62 62 62 62 62 61 61 61 61 62 62 62 62 62 61 61 61 61 61 62 62 62 62 62 62 62 62 62 61 61 61 61 62 62
65 64 63 64 64 64 63 63 63 64 65 63 63 62 62 63 63 63 63 63 63 63 63 63 62 62 61 62 62 62 62 63 62 61 61 60 60 61 61 61 61 61 61 61 61 61 61 61 62 62 62 62 62 62 62 62 62 63 61 61 61 62
63 62 61 62 63 62 62 62 62 62 62 62 62 61 61 61 61 62 62 63 63 63 63 62 62 62 61 62 62 61 61 62 62 61 60 60 60 61 61 60 61 61 62 61 61 61 61 61 62 62 61 62 62 61 61 62 62 62 62 62 62 63
61 60 61 61 61 61 61 61 61 60 59 59 59 61 59 59 60 60 62 63 63 63 63 62 62 62 62 62 61 61 61 61 61 60 60 60 59 60 60 60 60 61 60 61 61 61 61 61 59 59 59 61 62 62 62 62 62 62 62 62 62 62
59 60 61 60 60 59 58 57 56 57 57 56 58 57 58 57 59 60 61 62 62 62 63 62 62 62 61 63 61 61 61 61 61 60 60 59 60 60 60 60 60 60 60 59 60 60 60 60 59 58 57 58 59 62 63 62 61 61 61 61 61 61
58 59 60 61 60 58 56 57 57 56 55 55 57 57 56 55 56 58 59 60 61 61 61 62 62 61 61 62 60 60 60 61 62 60 60 60 60 61 60 60 60 59 59 58 58 59 59 59 57 57 56 55 57 59 60 61 61 62 62 61 61 62
58 58 58 60 59 57 56 57 56 55 55 51 52 55 55 56 56 54 54 56 57 57 60 61 62 62 61 61 60 60 59 60 61 61 59 60 61 60 59 60 59 59 58 59 59 59 58 57 55 54 55 54 52 53 56 57 59 61 61 61 60 62
57 57 58 59 58 56 56 55 53 53 53 53 54 56 54 54 54 53 53 54 55 54 56 58 61 62 61 61 59 59 60 60 61 61 60 60 60 60 59 59 59 59 58 57 58 58 60 57 56 56 53 53 52 50 50 54 55 58 60 61 61 61
55 55 57 58 57 56 55 53 54 54 54 53 53 53 53 52 53 56 53 53 53 53 55 56 58 61 62 59 58 59 60 60 61 62 61 60 60 60 59 59 59 59 58 58 56 59 60 59 58 58 56 53 51 48 48 53 54 57 58 60 60 61
54 55 56 55 56 56 55 53 53 53 52 51 51 51 50 50 51 51 52 52 51 51 52 53 56 58 59 59 58 60 60 61 61 61 61 61 60 60 59 59 59 58 58 57 58 58 58 59 59 59 58 57 56 54 53 55 54 51 56 57 57 59
54 55 55 55 56 56 54 53 53 52 52 52 51 49 50 51 52 52 51 50 49 50 50 52 53 54 55 57 56 59 60 61 61 60 61 60 60 59 59 60 59 59 58 58 59 57 58 58 59 59 59 59 58 56 56 55 52 51 53 56 56 57
55 55 54 55 55 55 54 53 52 51 52 51 51 51 51 52 52 52 49 49 49 49 50 51 53 54 55 56 56 57 58 58 58 57 59 58 58 58 58 58 58 57 57 58 58 58 58 59 57 57 59 58 58 57 57 56 54 54 52 52 53 55
55 54 53 54 54 54 54 53 52 52 52 51 52 53 53 53 51 50 48 48 48 49 50 50 51 52 53 56 58 56 56 56 56 56 57 55 55 55 56 56 56 56 56 56 57 58 59 58 56 57 58 58 57 55 54 54 54 53 52 50 50 49
54 53 53 53 54 53 53 53 52 51 51 53 53 52 51 50 49 48 47 47 48 48 49 50 50 51 52 54 54 55 54 54 54 55 55 53 53 53 53 53 53 54 54 54 54 57 58 57 57 58 58 58 57 53 50 50 52 52 49 51 50 43
53 53 52 52 52 52 52 52 52 51 52 52 52 52 50 49 48 47 47 47 47 48 48 49 51 51 52 53 54 55 53 53 55 56 53 51 52 51 51 51 50 50 50 51 52 53 54 55 56 56 56 57 55 51 49 47 47 49 48 45 44 43
52 52 51 51 51 51 52 52 52 52 52 53 52 52 51 50 48 47 47 47 47 47 47 48 49 50 50 52 53 52 53 52 52 51 51 51 50 50 50 50 49 49 49 49 50 50 49 49 48 48 48 48 48 49 48 48 48 47 46 45 45 43
53 52 51 51 51 51 52 52 52 53 53 53 53 52 52 51 49 48 47 47 46 46 46 47 48 48 49 49 51 50 50 51 51 51 51 50 50 50 49 49 48 48 48 47 47 47 47 47 47 47 47 47 47 47 48 48 48 46 46 45 44 43
52 52 51 51 51 52 53 53 53 54 54 54 53 53 53 52 51 49 48 47 47 46 46 47 47 48 48 50 50 51 50 50 50 50 50 50 50 50 49 48 48 48 47 47 47 46 46 47 47 47 47 46 47 47 47 47 47 47 46 45 44 44
52 52 52 52 52 53 54 54 54 55 56 55 56 54 55 53 51 49 48 47 47 47 46 46 47 49 51 49 50 49 49 49 49 50 51 51 51 50 50 49 49 49 48 47 47 47 46 46 46 46 46 47 47 47 47 47 47 47 46 46 45 44
53 53 53 54 55 55 54 54 54 55 55 55 55 54 54 53 52 49 48 48 48 47 47 47 48 49 49 49 49 49 49 49 49 49 50 49 49 49 49 48 48 48 48 49 46 46 46 46 46 46 46 46 47 46 47 47 47 47 47 47 47 45
53 54 54 54 54 54 55 55 55 54 54 54 54 53 52 53 51 50 49 49 49 48 48 48 50 51 49 48 49 49 48 48 49 49 49 49 48 48 48 48 47 47 47 47 47 45 46 45 45 46 46 47 47 47 48 48 48 48 48 47 46 46